CW6761 Aldeanueva de Vera ES current weather conditions

sailwx.info

Wind from 026 at 1 knots

Air temperature 16.7° C
Dewpoint 8.6° C

Last reported at 2018-Apr-23 03:06 UTC.
Time now 2018-Apr-23 03:59 UTC

Location: N 40°08' W 005°42'.
View on Google Maps.

See reports from other nearby stations

  
Tides and Currents Weather Stations Pressure Air Temp Water Temp Dewpoint Dewpoint Depression Visibility Wind Speed Wind Dir Waves Ship Positions
date/time (UTC)wind fromknots sea level pressurealtimeterstation pressurevisibilityair tempwater tempwave heightnotes
2018-Apr-23 03:06 026 1 16.7
2018-Apr-23 03:01 022 1 16.7
2018-Apr-23 02:56 355 0 16.1
2018-Apr-23 02:51 355 1 16.1
2018-Apr-23 02:46 023 1 16.1
2018-Apr-23 02:41 331 1 16.1
2018-Apr-23 02:36 335 2 16.1
2018-Apr-23 02:31 348 1 16.1
2018-Apr-23 02:26 010 0 15.6
2018-Apr-23 02:21 062 15.6
2018-Apr-23 02:16 092 15.0
2018-Apr-23 02:11 091 15.0
2018-Apr-23 02:06 355 0 15.0
2018-Apr-23 02:01 355 1 15.0
2018-Apr-23 01:56 355 0 15.0
2018-Apr-23 01:51 335 0 15.0
2018-Apr-23 01:46 335 0 15.0
2018-Apr-23 01:41 337 15.0
2018-Apr-23 01:36 337 0 15.6
2018-Apr-23 01:31 338 2 15.0
2018-Apr-23 01:26 017 2 15.6
2018-Apr-23 01:21 005 1 15.6
2018-Apr-23 01:16 014 15.6
2018-Apr-23 01:11 355 15.6
2018-Apr-23 01:06 355 15.6
2018-Apr-23 01:01 337 15.6
2018-Apr-23 00:56 337 15.6
2018-Apr-23 00:51 337 0 15.6
2018-Apr-23 00:46 338 1 15.6
2018-Apr-23 00:41 347 1 15.6
2018-Apr-23 00:36 005 0 15.0
2018-Apr-23 00:31 011 0 15.0
2018-Apr-23 00:26 044 1 15.0
2018-Apr-23 00:21 348 1 14.4
2018-Apr-23 00:16 348 0 14.4
2018-Apr-23 00:11 039 14.4
2018-Apr-23 00:06 039 15.0
2018-Apr-23 00:01 044 15.0
2018-Apr-22 23:56 045 15.6
2018-Apr-22 23:51 045 15.6
2018-Apr-22 23:46 045 15.6
2018-Apr-22 23:41 047 0 15.6
2018-Apr-22 23:36 051 1 15.6
2018-Apr-22 23:31 062 0 15.6
2018-Apr-22 23:26 005 0 15.6
2018-Apr-22 23:21 360 0 15.6
2018-Apr-22 23:16 360 1 15.6
2018-Apr-22 23:11 360 1 15.6
2018-Apr-22 23:06 351 2 15.6
2018-Apr-22 23:01 355 3 16.1
2018-Apr-22 22:56 005 3 16.1
2018-Apr-22 22:51 343 3 16.1
2018-Apr-22 22:46 344 3 16.1
2018-Apr-22 22:41 336 2 16.1
2018-Apr-22 22:36 009 2 16.1
2018-Apr-22 22:31 335 3 16.1
2018-Apr-22 22:26 355 0 16.1
2018-Apr-22 22:21 349 16.1
2018-Apr-22 22:16 321 1 16.1
2018-Apr-22 22:11 335 2 15.6
2018-Apr-22 22:06 338 2 15.6
2018-Apr-22 22:01 345 3 15.6
2018-Apr-22 21:56 346 1 15.6
2018-Apr-22 21:51 344 0 16.1
2018-Apr-22 21:46 331 1 16.1
2018-Apr-22 21:41 343 1 16.7
2018-Apr-22 21:36 349 2 16.7
2018-Apr-22 21:31 337 3 17.2
2018-Apr-22 21:26 339 2 17.2
2018-Apr-22 21:21 011 3 17.2
2018-Apr-22 21:16 338 4 17.2
2018-Apr-22 21:11 360 4 17.2
2018-Apr-22 21:06 011 3 17.2
2018-Apr-22 21:01 029 3 17.2
2018-Apr-22 20:56 013 4 17.2
2018-Apr-22 20:51 347 4 17.2
2018-Apr-22 20:46 360 4 17.2
2018-Apr-22 20:41 349 4 17.2
2018-Apr-22 20:36 350 3 17.2
2018-Apr-22 20:31 355 3 17.2
2018-Apr-22 20:26 360 3 16.7
2018-Apr-22 20:21 015 3 16.7
2018-Apr-22 20:16 017 3 16.1
2018-Apr-22 20:11 355 2 16.1
2018-Apr-22 20:06 350 2 16.1
2018-Apr-22 20:01 355 2 15.6
2018-Apr-22 19:56 355 1 16.1
2018-Apr-22 19:51 355 0 16.1
2018-Apr-22 19:46 026 0 16.1
2018-Apr-22 19:41 024 1 16.1
2018-Apr-22 19:36 355 3 16.1
2018-Apr-22 19:31 015 1 16.1
2018-Apr-22 19:26 009 16.7
2018-Apr-22 19:21 343 16.7
2018-Apr-22 19:16 346 16.7
2018-Apr-22 19:11 009 17.2
2018-Apr-22 19:06 005 1 17.2
2018-Apr-22 19:01 360 2 17.2
2018-Apr-22 18:56 347 1 17.2
2018-Apr-22 18:51 346 17.2
2018-Apr-22 18:46 337 0 17.2
2018-Apr-22 18:41 012 0 17.8
2018-Apr-22 18:36 355 17.8
2018-Apr-22 18:31 355 18.3
2018-Apr-22 18:26 355 18.3
2018-Apr-22 18:21 355 18.3
2018-Apr-22 18:16 355 18.3
2018-Apr-22 18:11 360 18.9
2018-Apr-22 18:06 336 18.9
2018-Apr-22 18:01 336 0 18.9
2018-Apr-22 17:56 335 0 18.9
2018-Apr-22 17:51 315 18.9
2018-Apr-22 17:46 315 1 18.9
2018-Apr-22 17:41 335 1 18.9
2018-Apr-22 17:36 152 18.9
2018-Apr-22 17:31 152 18.3
2018-Apr-22 17:26 152 18.3
2018-Apr-22 17:21 099 18.3
2018-Apr-22 17:16 098 18.3
2018-Apr-22 17:11 098 18.3
2018-Apr-22 17:06 145 18.9
2018-Apr-22 17:01 131 18.9
2018-Apr-22 16:56 140 18.9
2018-Apr-22 16:51 140 18.9
2018-Apr-22 16:46 140 18.9
2018-Apr-22 16:41 140 18.9
2018-Apr-22 16:36 142 18.9
2018-Apr-22 16:31 142 18.9
2018-Apr-22 16:26 142 18.9
2018-Apr-22 16:22 142 0 18.9
2018-Apr-22 16:16 167 0 18.9
2018-Apr-22 16:11 153 0 18.9
2018-Apr-22 16:06 137 18.9
2018-Apr-22 16:01 198 18.9
2018-Apr-22 15:56 198 18.9
2018-Apr-22 15:51 198 18.9
2018-Apr-22 15:46 198 18.9
2018-Apr-22 15:41 201 18.9
2018-Apr-22 15:36 201 0 18.9
2018-Apr-22 15:31 142 0 19.4
2018-Apr-22 15:26 165 0 19.4
2018-Apr-22 15:21 188 19.4
2018-Apr-22 15:16 188 19.4
2018-Apr-22 15:11 188 19.4
2018-Apr-22 15:06 188 19.4
2018-Apr-22 15:01 111 19.4
2018-Apr-22 14:56 137 19.4
2018-Apr-22 14:51 138 19.4
2018-Apr-22 14:46 132 19.4
2018-Apr-22 14:41 137 19.4
2018-Apr-22 14:36 155 19.4
2018-Apr-22 14:31 155 19.4
2018-Apr-22 14:26 165 0 19.4
2018-Apr-22 14:21 127 1 19.4
2018-Apr-22 14:16 159 0 19.4
2018-Apr-22 14:11 115 0 19.4
2018-Apr-22 14:06 119 0 20.0
2018-Apr-22 14:01 150 0 20.0
2018-Apr-22 13:56 127 1 20.0
2018-Apr-22 13:51 139 0 20.0
2018-Apr-22 13:46 176 19.4
2018-Apr-22 13:41 184 19.4
2018-Apr-22 13:36 147 18.9
2018-Apr-22 13:31 159 18.9
2018-Apr-22 13:26 185 0 18.9
2018-Apr-22 13:21 213 18.9
2018-Apr-22 13:16 201 18.3
2018-Apr-22 13:11 208 0 18.3
2018-Apr-22 13:06 195 0 18.3
2018-Apr-22 13:01 204 0 18.3
2018-Apr-22 12:56 169 0 18.3
2018-Apr-22 12:51 171 0 17.8
2018-Apr-22 12:46 196 17.8
2018-Apr-22 12:41 171 17.2
2018-Apr-22 12:36 192 17.2
2018-Apr-22 12:31 212 16.7
2018-Apr-22 12:26 213 16.1
2018-Apr-22 12:21 215 16.1
2018-Apr-22 12:16 246 15.0
2018-Apr-22 12:11 246 0 15.0
2018-Apr-22 12:06 063 2 14.4
2018-Apr-22 12:01 360 2 13.9
2018-Apr-22 11:56 323 2 13.3
2018-Apr-22 11:51 005 3 13.3
2018-Apr-22 11:46 013 6 12.8
2018-Apr-22 11:41 360 6 13.3
2018-Apr-22 11:36 013 3 13.3
2018-Apr-22 11:31 355 13.3
2018-Apr-22 11:26 197 1 13.9
2018-Apr-22 11:21 196 1 13.9
2018-Apr-22 11:16 215 1 13.9
2018-Apr-22 11:11 188 1 13.9
2018-Apr-22 11:06 199 1 13.9
2018-Apr-22 11:01 208 0 14.4
2018-Apr-22 10:56 213 14.4
2018-Apr-22 10:51 196 14.4
2018-Apr-22 10:46 355 14.4
2018-Apr-22 10:41 355 14.4
2018-Apr-22 10:36 355 14.4
2018-Apr-22 10:31 355 14.4
2018-Apr-22 10:26 355 15.0
2018-Apr-22 10:21 355 1 15.0
2018-Apr-22 10:16 212 1 15.0
2018-Apr-22 10:11 171 1 15.6
2018-Apr-22 10:06 179 1 16.1
2018-Apr-22 10:01 148 1 16.1
2018-Apr-22 09:56 145 0 16.1
2018-Apr-22 09:51 155 16.1
2018-Apr-22 09:46 173 16.1
2018-Apr-22 09:41 173 15.6
2018-Apr-22 09:36 175 15.6
2018-Apr-22 09:31 175 15.6
2018-Apr-22 09:26 182 15.0
2018-Apr-22 09:21 182 15.0
2018-Apr-22 09:16 203 14.4
2018-Apr-22 09:11 203 13.9
2018-Apr-22 09:06 204 13.9
2018-Apr-22 09:01 204 13.9
2018-Apr-22 08:56 204 13.9
2018-Apr-22 08:51 205 0 13.9
2018-Apr-22 08:46 159 13.3
2018-Apr-22 08:41 112 0 13.3
2018-Apr-22 08:36 033 2 13.3
2018-Apr-22 08:31 013 0 13.3
2018-Apr-22 08:26 355 13.3
2018-Apr-22 08:21 167 13.3
2018-Apr-22 08:16 167 13.3
2018-Apr-22 08:11 167 13.3
2018-Apr-22 08:06 167 0 13.3
2018-Apr-22 08:01 167 1 12.8
2018-Apr-22 07:56 169 0 12.8
2018-Apr-22 07:51 351 12.2
2018-Apr-22 07:46 351 12.2
2018-Apr-22 07:41 351 12.2
2018-Apr-22 07:36 086 12.2
2018-Apr-22 07:31 089 12.2
2018-Apr-22 07:26 281 12.2
2018-Apr-22 07:21 201 12.2
2018-Apr-22 07:16 201 12.2
2018-Apr-22 07:11 300 12.2
2018-Apr-22 07:06 300 12.2
2018-Apr-22 07:01 299 0 12.2
2018-Apr-22 06:56 241 1 12.2
2018-Apr-22 06:51 226 1 12.2
2018-Apr-22 06:46 172 2 12.2
2018-Apr-22 06:41 340 1 12.2
2018-Apr-22 06:36 333 0 12.2
2018-Apr-22 06:31 345 0 12.2
2018-Apr-22 06:26 216 12.2
2018-Apr-22 06:21 216 12.2
2018-Apr-22 06:16 210 12.2
2018-Apr-22 06:11 214 12.2
2018-Apr-22 06:06 253 12.2
2018-Apr-22 06:01 296 12.2
2018-Apr-22 05:56 342 12.2
2018-Apr-22 05:51 342 1 12.2
2018-Apr-22 05:46 360 2 12.2
2018-Apr-22 05:41 005 0 12.2
2018-Apr-22 05:36 074 12.2
2018-Apr-22 05:31 331 12.2
2018-Apr-22 05:26 331 12.2
2018-Apr-22 05:21 331 12.2
2018-Apr-22 05:16 348 12.2
2018-Apr-22 05:11 348 12.2
2018-Apr-22 05:06 329 12.2
2018-Apr-22 05:01 329 0 12.8
2018-Apr-22 04:56 329 0 12.8
2018-Apr-22 04:51 238 12.8
2018-Apr-22 04:46 288 12.8
2018-Apr-22 04:41 194 12.8
2018-Apr-22 04:36 203 12.8
2018-Apr-22 04:31 342 12.8
2018-Apr-22 04:26 355 12.8
2018-Apr-22 04:21 355 12.8
2018-Apr-22 04:16 339 12.8
2018-Apr-22 04:11 345 13.3
2018-Apr-22 04:06 025 0 13.3
2018-Apr-22 04:01 051 13.3
2018-Apr-22 03:56 009 13.3
2018-Apr-22 03:51 327 13.3
2018-Apr-22 03:46 321 0 13.3
2018-Apr-22 03:41 329 0 13.3
2018-Apr-22 03:36 321 0 13.3
2018-Apr-22 03:31 336 1 13.3
2018-Apr-22 03:26 327 4 13.3
2018-Apr-22 03:21 342 8 13.3
2018-Apr-22 03:16 316 9 12.8
2018-Apr-22 03:11 338 7 12.8
2018-Apr-22 03:06 342 7 12.8
2018-Apr-22 03:01 355 7 12.8
2018-Apr-22 02:56 355 8 12.8
2018-Apr-22 02:51 336 9 12.8
2018-Apr-22 02:46 336 8 12.8
2018-Apr-22 02:41 347 7 12.8
2018-Apr-22 02:36 343 3 12.2
2018-Apr-22 02:31 319 0 12.2
2018-Apr-22 02:26 323 12.2
2018-Apr-22 02:21 355 12.2
2018-Apr-22 02:16 344 12.2
2018-Apr-22 02:11 343 12.8
2018-Apr-22 02:06 338 12.8
2018-Apr-22 02:01 226 13.3
2018-Apr-22 01:56 336 13.3
2018-Apr-22 01:51 337 2 13.3
2018-Apr-22 01:46 299 3 13.9
2018-Apr-22 01:41 342 3 14.4
2018-Apr-22 01:36 342 6 14.4
2018-Apr-22 01:31 027 6 14.4
2018-Apr-22 01:26 050 6 13.9
2018-Apr-22 01:21 005 6 13.9
2018-Apr-22 01:16 040 4 13.3
2018-Apr-22 01:11 019 5 13.3
2018-Apr-22 01:06 013 6 13.3
2018-Apr-22 01:01 338 5 13.3
2018-Apr-22 00:56 319 5 13.3
2018-Apr-22 00:51 298 4 12.8
2018-Apr-22 00:46 315 4 12.8
2018-Apr-22 00:41 355 4 12.8
2018-Apr-22 00:36 005 5 12.8
2018-Apr-22 00:31 350 4 12.8
2018-Apr-22 00:26 340 2 12.8
2018-Apr-22 00:21 010 0 12.8
2018-Apr-22 00:16 015 12.8
2018-Apr-22 00:11 016 13.3
2018-Apr-22 00:06 360 1 13.3
2018-Apr-22 00:01 360 1 13.3
2018-Apr-21 23:56 005 1 13.3
2018-Apr-21 23:51 010 1 13.3
2018-Apr-21 23:46 347 2 13.3
2018-Apr-21 23:41 328 2 13.3
2018-Apr-21 23:36 332 3 13.3
2018-Apr-21 23:31 205 6 13.9
2018-Apr-21 23:26 182 6 13.9
2018-Apr-21 23:21 167 2 15.0
2018-Apr-21 23:16 179 15.6
2018-Apr-21 23:11 336 15.6
2018-Apr-21 23:06 344 15.6
2018-Apr-21 23:01 344 15.6
2018-Apr-21 22:56 344 16.1
2018-Apr-21 22:51 344 0 16.1
2018-Apr-21 22:46 347 2 16.1
2018-Apr-21 22:41 340 2 15.6
2018-Apr-21 22:36 350 2 15.6
2018-Apr-21 22:31 344 1 15.6
2018-Apr-21 22:26 360 0 15.0
2018-Apr-21 22:21 336 1 15.0
2018-Apr-21 22:16 336 1 15.0
2018-Apr-21 22:11 346 0 15.0
2018-Apr-21 22:06 355 15.0
2018-Apr-21 22:01 355 14.4
2018-Apr-21 21:56 355 14.4
2018-Apr-21 21:51 355 14.4
2018-Apr-21 21:46 355 14.4
2018-Apr-21 21:41 355 14.4
2018-Apr-21 21:36 355 14.4
2018-Apr-21 21:31 351 14.4
2018-Apr-21 21:26 351 0 15.0
2018-Apr-21 21:21 355 0 14.4
2018-Apr-21 21:16 351 0 14.4
2018-Apr-21 21:11 338 0 14.4
2018-Apr-21 21:06 350 1 14.4
2018-Apr-21 21:01 360 1 14.4
2018-Apr-21 20:56 025 1 14.4
2018-Apr-21 20:51 345 13.9
2018-Apr-21 20:46 355 0 13.9
2018-Apr-21 20:41 348 2 13.9
2018-Apr-21 20:36 360 2 13.9
2018-Apr-21 20:31 005 0 13.9
2018-Apr-21 20:26 010 0 13.9
2018-Apr-21 20:21 010 0 14.4
2018-Apr-21 20:16 015 14.4
2018-Apr-21 20:11 005 0 14.4
2018-Apr-21 20:06 338 1 14.4
2018-Apr-21 20:01 355 2 14.4
2018-Apr-21 19:56 344 2 14.4
2018-Apr-21 19:51 334 0 14.4
2018-Apr-21 19:46 346 15.0
2018-Apr-21 19:41 332 15.0
2018-Apr-21 19:36 332 15.0
2018-Apr-21 19:31 332 15.0
2018-Apr-21 19:26 333 15.0
2018-Apr-21 19:21 333 15.0
2018-Apr-21 19:11 329 15.6
2018-Apr-21 19:06 329 15.6
2018-Apr-21 19:01 329 15.6
2018-Apr-21 18:56 333 0 15.6
2018-Apr-21 18:51 322 15.6
2018-Apr-21 18:46 016 15.6
2018-Apr-21 18:41 016 15.6
2018-Apr-21 18:36 016 15.6
2018-Apr-21 18:31 016 16.1
2018-Apr-21 18:26 016 16.1
2018-Apr-21 18:21 016 16.1
2018-Apr-21 18:16 016 16.1
2018-Apr-21 18:11 016 16.1
2018-Apr-21 18:06 016 16.1
2018-Apr-21 18:01 016 16.1
2018-Apr-21 17:56 016 16.1
2018-Apr-21 17:51 016 16.1
2018-Apr-21 17:46 355 16.1
2018-Apr-21 17:41 355 16.1
2018-Apr-21 17:36 341 16.1
2018-Apr-21 17:31 338 16.1
2018-Apr-21 17:26 321 16.1
2018-Apr-21 17:21 321 16.1
2018-Apr-21 17:16 321 16.1
2018-Apr-21 17:11 321 16.1
2018-Apr-21 17:06 321 16.1
2018-Apr-21 17:01 321 16.1
2018-Apr-21 16:56 321 15.6
2018-Apr-21 16:51 320 15.6
2018-Apr-21 16:46 313 15.6
2018-Apr-21 16:41 230 15.6
2018-Apr-21 16:36 228 15.6
2018-Apr-21 16:31 228 0 15.6
2018-Apr-21 16:26 228 0 15.6
2018-Apr-21 16:21 239 15.6
2018-Apr-21 16:16 293 15.6
2018-Apr-21 16:11 294 15.6
2018-Apr-21 16:06 294 15.6
2018-Apr-21 16:01 293 0 16.1
2018-Apr-21 15:56 236 0 16.1
2018-Apr-21 15:51 208 1 16.1
2018-Apr-21 15:46 202 1 16.1
2018-Apr-21 15:41 196 0 16.1
2018-Apr-21 15:36 222 0 16.1
2018-Apr-21 15:31 223 0 16.1
2018-Apr-21 15:26 216 16.1
2018-Apr-21 15:21 216 16.1
2018-Apr-21 15:16 215 0 16.1
2018-Apr-21 15:11 206 1 16.1
2018-Apr-21 15:06 213 0 15.6
2018-Apr-21 15:01 196 15.6
2018-Apr-21 14:56 082 15.0
2018-Apr-21 14:51 081 15.0
2018-Apr-21 14:46 082 15.0
2018-Apr-21 14:41 067 15.0
2018-Apr-21 14:36 071 15.0
2018-Apr-21 14:31 201 1 15.0
2018-Apr-21 14:26 167 4 14.4
2018-Apr-21 14:21 194 3 14.4
2018-Apr-21 14:16 155 0 13.9
2018-Apr-21 14:11 340 13.9
2018-Apr-21 14:06 340 13.3
2018-Apr-21 14:01 340 13.3
2018-Apr-21 13:56 336 0 13.3
2018-Apr-21 13:51 331 1 13.3
2018-Apr-21 13:46 034 0 13.3
2018-Apr-21 13:41 058 0 13.9
2018-Apr-21 13:36 106 0 13.9
2018-Apr-21 13:31 093 0 13.9
2018-Apr-21 13:26 071 0 13.9
2018-Apr-21 13:21 086 0 14.4
2018-Apr-21 13:16 120 0 14.4
2018-Apr-21 13:11 146 0 14.4
2018-Apr-21 13:06 182 2 14.4
2018-Apr-21 13:01 129 3 15.0
2018-Apr-21 12:56 209 2 15.0
2018-Apr-21 12:51 178 1 15.6
2018-Apr-21 12:46 055 2 15.6
2018-Apr-21 12:41 136 1 15.6
2018-Apr-21 12:36 104 1 15.0
2018-Apr-21 12:31 124 1 15.0
2018-Apr-21 12:26 146 0 14.4
2018-Apr-21 12:21 064 14.4
2018-Apr-21 12:16 151 0 14.4
2018-Apr-21 12:11 183 0 14.4
2018-Apr-21 12:06 122 0 14.4
2018-Apr-21 12:01 121 14.4
2018-Apr-21 11:56 143 1 15.0
2018-Apr-21 11:51 127 1 15.0
2018-Apr-21 11:46 132 1 15.0
2018-Apr-21 11:41 141 1 15.0
2018-Apr-21 11:36 143 1 15.0
2018-Apr-21 11:31 096 1 15.0
2018-Apr-21 11:26 175 0 15.0
2018-Apr-21 11:21 172 0 15.0
2018-Apr-21 11:16 109 15.0
2018-Apr-21 11:11 181 15.0
2018-Apr-21 11:06 223 15.0
2018-Apr-21 11:01 215 14.4
2018-Apr-21 10:56 216 0 14.4
2018-Apr-21 10:51 184 0 14.4
2018-Apr-21 10:46 055 3 14.4
2018-Apr-21 10:41 106 6 15.0
2018-Apr-21 10:36 168 6 15.0
2018-Apr-21 10:31 173 2 14.4
2018-Apr-21 10:26 332 1 13.9
2018-Apr-21 10:21 039 0 13.9
2018-Apr-21 10:16 076 0 13.9
2018-Apr-21 10:11 154 0 13.9
2018-Apr-21 10:06 157 13.9
2018-Apr-21 10:01 015 0 13.3
2018-Apr-21 09:56 013 0 13.3
2018-Apr-21 09:51 028 13.3
2018-Apr-21 09:46 029 13.3
2018-Apr-21 09:41 029 13.3
2018-Apr-21 09:36 029 13.3
2018-Apr-21 09:31 030 13.3
2018-Apr-21 09:26 030 12.8
2018-Apr-21 09:21 005 12.8
2018-Apr-21 09:16 005 0 12.2
2018-Apr-21 09:11 005 0 12.2
2018-Apr-21 09:06 218 12.2
2018-Apr-21 09:01 218 12.2
2018-Apr-21 08:56 342 12.2
2018-Apr-21 08:51 345 12.2
2018-Apr-21 08:46 345 12.2
2018-Apr-21 08:41 345 12.2
2018-Apr-21 08:36 345 12.2
2018-Apr-21 08:31 345 12.2
2018-Apr-21 08:26 345 12.2
2018-Apr-21 08:21 345 11.7
2018-Apr-21 08:16 345 11.7
2018-Apr-21 08:11 345 12.2
2018-Apr-21 08:06 345 12.2
2018-Apr-21 08:01 345 11.7
2018-Apr-21 07:56 346 11.7
2018-Apr-21 07:51 346 11.7
2018-Apr-21 07:46 346 11.7
2018-Apr-21 07:41 346 11.7
2018-Apr-21 07:36 345 11.7
2018-Apr-21 07:31 345 11.7
2018-Apr-21 07:26 345 11.7
2018-Apr-21 07:21 345 11.7
2018-Apr-21 07:16 345 11.7
2018-Apr-21 07:11 345 11.7
2018-Apr-21 07:06 345 11.7
2018-Apr-21 07:01 345 11.7
2018-Apr-21 06:56 345 11.7
2018-Apr-21 06:51 345 11.7
2018-Apr-21 06:46 345 11.7
2018-Apr-21 06:41 345 11.7
2018-Apr-21 06:36 345 11.7
2018-Apr-21 06:31 345 11.7
2018-Apr-21 06:26 345 11.1
2018-Apr-21 06:21 345 11.1
2018-Apr-21 06:16 345 11.1
2018-Apr-21 06:11 345 11.1
2018-Apr-21 06:06 355 11.1
2018-Apr-21 06:01 355 10.6
2018-Apr-21 05:56 355 10.6
2018-Apr-21 05:51 355 10.6
2018-Apr-21 05:46 355 10.6
2018-Apr-21 05:41 355 10.6
2018-Apr-21 05:36 355 11.1
2018-Apr-21 05:31 355 0 11.1
2018-Apr-21 05:26 343 0 11.1
2018-Apr-21 05:21 344 11.1
2018-Apr-21 05:16 344 11.1
2018-Apr-21 05:11 344 11.1
2018-Apr-21 05:06 343 11.1
2018-Apr-21 05:01 343 11.1
2018-Apr-21 04:56 343 11.1
2018-Apr-21 04:51 340 11.1
2018-Apr-21 04:46 339 11.1
2018-Apr-21 04:41 338 11.1
2018-Apr-21 04:36 338 11.1
2018-Apr-21 04:31 338 11.1
2018-Apr-21 04:26 338 11.1
2018-Apr-21 04:21 338 11.1
2018-Apr-21 04:16 336 11.1
2018-Apr-21 04:11 333 11.1
2018-Apr-21 04:06 333 11.1
2018-Apr-21 04:01 332 11.1
2018-Apr-21 03:56 332 11.1
2018-Apr-21 03:51 333 11.1
2018-Apr-21 03:46 332 11.1
2018-Apr-21 03:41 332 11.7
2018-Apr-21 03:36 332 11.7
2018-Apr-21 03:31 332 12.2
2018-Apr-21 03:26 332 12.2
2018-Apr-21 03:21 332 12.2
2018-Apr-21 03:16 332 12.2
2018-Apr-21 03:11 332 12.2
2018-Apr-21 03:06 333 12.2
2018-Apr-21 03:01 333 12.2